KC5TIL Weather Reports


time (UTC)temp
F
wind
direction
speed
knots
gust
knots
rain 1hr
in
rain 24hr
in
rain mn
in
humidity
%
barometer
mb
20260506144207 54 62 0.9 4.3 0.00 0.00 0.00 84 1017.8
20260506143705 54 287 2.6 4.3 0.00 0.00 0.00 82 1017.9
20260506143202 54 62 0.9 2.6 0.00 0.00 0.00 82 1018.0
20260506142701 54 42 1.7 5.2 0.00 0.00 0.00 82 1016.6
20260506142158 54 62 3.5 6.1 0.00 0.00 0.00 82 1015.7
20260506141656 54 18 3.5 8.7 0.00 0.00 0.00 82 1016.2
20260506141154 54 356 6.1 8.7 0.00 0.00 0.00 82 1016.1
20260506140651 54 335 2.6 8.7 0.00 0.00 0.00 82 1016.5
20260506140148 54 301 2.6 7.0 0.00 0.00 0.00 82 1016.7
20260506135645 54 330 2.6 7.8 0.00 0.00 0.00 82 1016.2
20260506135141 54 355 4.3 8.7 0.00 0.00 0.00 82 1016.4
20260506134638 54 322 3.5 7.0 0.00 0.00 0.00 82 1016.2
20260506134133 54 13 3.5 9.6 0.00 0.00 0.00 82 1015.8
20260506133631 54 3 3.5 11.3 0.00 0.00 0.00 82 1015.8
20260506133128 54 28 4.3 11.3 0.00 0.00 0.00 81 1015.8
20260506132626 54 0 2.6 7.8 0.00 0.00 0.00 81 1015.6
20260506132122 55 86 0.9 7.8 0.00 0.00 0.00 80 1015.4
20260506131620 55 274 2.6 7.0 0.00 0.00 0.00 79 1015.6
20260506131116 55 5 0.9 6.1 0.00 0.00 0.00 79 1015.3
20260506130613 55 306 6.1 7.8 0.00 0.00 0.00 78 1015.3
20260506130110 55 213 2.6 8.7 0.00 0.00 0.00 78 1015.0
20260506125609 55 122 0.0 6.1 0.00 0.00 0.00 78 1014.9
20260506125106 55 81 7.8 9.6 0.00 0.00 0.00 78 1015.2
20260506124603 55 20 2.6 6.1 0.00 0.00 0.00 77 1014.9
20260506124101 55 286 7.0 7.8 0.00 0.00 0.00 77 1015.0
20260506123558 55 121 3.5 8.7 0.00 0.00 0.00 76 1014.8
20260506123057 56 2 5.2 9.6 0.00 0.00 0.00 76 1014.9
20260506122553 56 317 5.2 11.3 0.00 0.00 0.00 75 1014.7
20260506122052 56 306 5.2 7.8 0.00 0.00 0.00 75 1014.6
20260506121549 56 11 2.6 6.1 0.00 0.00 0.00 76 1014.4
20260506121044 56 301 0.9 6.1 0.00 0.00 0.00 76 1014.4
20260506120543 56 56 1.7 6.1 0.00 0.00 0.00 76 1014.2
20260506120040 56 11 5.2 7.8 0.00 0.00 0.00 76 1014.6
20260506115538 57 330 4.3 7.0 0.00 0.00 0.00 76 1014.3
20260506115036 57 54 1.7 6.1 0.00 0.00 0.00 76 1014.5
20260506114533 57 304 4.3 6.1 0.00 0.00 0.00 76 1014.4
20260506114032 57 10 0.9 7.0 0.00 0.00 0.00 75 1014.2
20260506113529 57 302 5.2 8.7 0.00 0.00 0.00 75 1014.1
20260506113026 57 355 5.2 9.6 0.00 0.00 0.00 75 1014.1
20260506112522 57 47 5.2 7.0 0.00 0.00 0.00 75 1013.9
20260506112020 57 72 1.7 6.1 0.00 0.00 0.00 75 1013.6
20260506111518 58 36 3.5 5.2 0.00 0.00 0.00 75 1013.6
20260506111015 58 253 3.5 6.1 0.00 0.00 0.00 75 1013.2
20260506110513 58 342 2.6 5.2 0.00 0.00 0.00 74 1013.5
20260506110010 58 129 0.9 8.7 0.00 0.00 0.00 75 1013.7
20260506105505 58 49 4.3 7.0 0.00 0.00 0.00 75 1013.4
20260506105003 58 340 2.6 6.1 0.00 0.00 0.00 75 1013.4
20260506104501 58 312 3.5 6.1 0.00 0.00 0.00 75 1013.2
20260506103959 58 317 4.3 7.0 0.00 0.00 0.00 75 1013.3
20260506103455 58 295 4.3 8.7 0.00 0.00 0.00 75 1013.2
20260506102952 59 347 3.5 6.1 0.00 0.00 0.00 75 1013.0
20260506102450 59 319 6.1 7.0 0.00 0.00 0.00 75 1012.7
20260506101948 59 309 5.2 7.8 0.00 0.00 0.00 76 1012.7
20260506101444 59 330 2.6 5.2 0.00 0.00 0.00 76 1012.4
20260506100941 59 10 4.3 6.1 0.00 0.00 0.00 75 1012.3
20260506100439 59 9 2.6 6.1 0.00 0.00 0.00 75 1012.3
20260506095937 59 304 2.6 4.3 0.00 0.00 0.00 75 1012.3
20260506095435 59 313 2.6 6.1 0.00 0.00 0.00 75 1012.3
20260506094931 60 9 5.2 7.8 0.00 0.00 0.00 75 1012.0
20260506094430 60 326 2.6 4.3 0.00 0.00 0.00 75 1012.3
20260506093927 60 336 5.2 7.0 0.00 0.00 0.00 75 1012.0
20260506093425 60 297 2.6 6.1 0.00 0.00 0.00 75 1012.0
20260506092923 60 295 2.6 5.2 0.00 0.00 0.00 75 1012.1
20260506092421 60 313 1.7 6.1 0.00 0.00 0.00 75 1012.0
20260506091917 60 355 2.6 7.0 0.00 0.00 0.00 75 1011.9
20260506091415 60 346 3.5 7.0 0.00 0.00 0.00 75 1012.0
20260506090912 61 247 2.6 4.3 0.00 0.00 0.00 75 1012.0
20260506090409 60 358 1.7 4.3 0.00 0.00 0.00 76 1011.8
20260506085906 61 1 1.7 7.0 0.00 0.00 0.00 76 1011.9
20260506085403 61 306 4.3 6.1 0.00 0.00 0.00 76 1011.6
20260506084859 61 291 3.5 6.1 0.00 0.00 0.00 76 1011.9
20260506084356 61 0 3.5 5.2 0.00 0.00 0.00 76 1011.7
20260506083852 61 32 0.9 4.3 0.00 0.00 0.00 76 1011.7
20260506083350 61 79 2.6 2.6 0.00 0.00 0.00 77 1011.6
20260506082847 61 336 1.7 4.3 0.00 0.00 0.00 77 1011.5
20260506082344 62 285 1.7 5.2 0.00 0.00 0.00 77 1011.5
20260506081839 62 90 0.9 4.3 0.00 0.00 0.00 77 1011.6
20260506081338 62 202 0.9 2.6 0.00 0.00 0.00 77 1011.5
20260506080835 62 101 0.9 4.3 0.00 0.00 0.00 77 1011.3
20260506080331 62 269 1.7 4.3 0.00 0.00 0.00 77 1011.3
20260506073316 62 99 0.9 5.2 0.00 0.00 0.00 78 1011.2
20260506072812 62 75 2.6 2.6 0.00 0.00 0.00 78 1011.1
20260506072310 62 70 1.7 4.3 0.00 0.00 0.00 78 1011.3
20260506071808 62 44 1.7 4.3 0.00 0.00 0.00 78 1011.3
20260506071306 62 26 0.9 4.3 0.00 0.00 0.00 78 1011.0
20260506070802 62 28 3.5 6.1 0.00 0.00 0.00 77 1011.2
20260506070259 62 101 2.6 4.3 0.00 0.00 0.00 77 1011.3
20260506062236 63 203 1.7 4.3 0.00 0.00 0.00 77 1011.0
20260506061726 63 345 4.3 6.1 0.00 0.00 0.00 77 1011.3
20260506061224 63 264 5.2 7.0 0.00 0.00 0.00 77 1011.2
20260506060723 63 69 2.6 4.3 0.00 0.00 0.00 77 1011.1
20260506060219 63 258 2.6 7.8 0.00 0.00 0.00 77 1011.0
20260506051145 65 18 5.2 7.8 0.00 0.00 0.00 76 1011.4
20260506050644 65 21 2.6 7.0 0.00 0.00 0.00 76 1011.3
20260506050140 65 306 5.2 7.0 0.00 0.00 0.00 76 1011.2
20260506045133 66 115 0.0 7.0 0.00 0.00 0.00 76 1010.8
20260506044631 66 257 2.6 6.1 0.00 0.00 0.00 75 1011.0
20260506044128 66 67 0.0 5.2 0.00 0.00 0.00 75 1010.9
20260506043625 66 348 4.3 7.0 0.00 0.00 0.00 75 1011.1
20260506043123 66 346 2.6 6.1 0.00 0.00 0.00 75 1011.2
20260506042622 67 28 6.1 7.8 0.00 0.00 0.00 74 1011.2
20260506042120 67 218 3.5 8.7 0.00 0.00 0.00 74 1011.1
20260506041618 68 0 3.5 7.8 0.00 0.00 0.00 73 1011.1
20260506041114 68 318 3.5 5.2 0.00 0.00 0.00 74 1010.8
20260506040612 68 291 5.2 9.6 0.00 0.00 0.00 74 1010.7
20260506040109 69 294 5.2 6.1 0.00 0.00 0.00 73 1010.9
20260506035606 69 353 6.1 7.8 0.00 0.00 0.00 73 1010.6
20260506035102 69 285 3.5 7.0 0.00 0.00 0.00 73 1010.2
20260506034600 69 244 0.9 4.3 0.00 0.00 0.00 73 1010.1
20260506034056 69 18 2.6 6.1 0.00 0.00 0.00 72 1010.0
20260506033554 70 319 4.3 7.0 0.00 0.00 0.00 71 1010.1
20260506033050 70 274 1.7 5.2 0.00 0.00 0.00 71 1010.0
20260506032548 70 356 3.5 11.3 0.00 0.00 0.00 70 1009.8
20260506032045 70 353 2.6 2.6 0.00 0.00 0.00 70 1009.5
20260506031542 70 308 2.6 8.7 0.00 0.00 0.00 70 1009.5
20260506031039 70 87 1.7 7.8 0.00 0.00 0.00 69 1009.5
20260506030537 70 345 1.7 6.1 0.00 0.00 0.00 70 1009.5
20260506030034 70 27 4.3 7.0 0.00 0.00 0.00 70 1009.2
20260506025531 70 345 2.6 7.8 0.00 0.00 0.00 70 1009.4
20260506025027 71 10 1.7 6.1 0.00 0.00 0.00 70 1009.4
20260506024524 71 343 2.6 7.0 0.00 0.00 0.00 70 1009.3
20260506024020 71 316 4.3 8.7 0.00 0.00 0.00 70 1009.1
20260506023516 72 349 6.1 8.7 0.00 0.00 0.00 69 1008.9
20260506023015 72 293 7.0 9.6 0.00 0.00 0.00 69 1008.8
20260506022512 72 341 6.1 9.6 0.00 0.00 0.00 68 1008.8
20260506022009 73 58 1.7 7.0 0.00 0.00 0.00 68 1008.4
20260506021506 73 264 4.3 9.6 0.00 0.00 0.00 68 1008.3
20260506021004 73 348 2.6 4.3 0.00 0.00 0.00 68 1008.1
20260506020501 73 334 3.5 8.7 0.00 0.00 0.00 68 1007.9
20260506015957 74 299 5.2 8.7 0.00 0.00 0.00 67 1007.9
20260506015455 74 9 2.6 5.2 0.00 0.00 0.00 67 1007.4
20260506014952 74 33 1.7 4.3 0.00 0.00 0.00 67 1007.4
20260506014449 75 43 2.6 7.0 0.00 0.00 0.00 67 1007.4
20260506013945 75 354 3.5 6.1 0.00 0.00 0.00 67 1007.0
20260506013444 75 307 1.7 7.0 0.00 0.00 0.00 67 1007.0
20260506012939 76 351 3.5 7.0 0.00 0.00 0.00 67 1007.1
20260506012436 76 332 1.7 6.1 0.00 0.00 0.00 66 1006.8
20260506011933 77 312 3.5 7.0 0.00 0.00 0.00 66 1006.6
20260506011431 77 54 2.6 6.1 0.00 0.00 0.00 65 1006.6
20260506010927 78 350 3.5 7.8 0.00 0.00 0.00 64 1006.7
20260506010426 78 355 1.7 4.3 0.00 0.00 0.00 63 1006.7
20260506005922 78 62 2.6 5.2 0.00 0.00 0.00 62 1006.5
20260506005420 79 23 3.5 4.3 0.00 0.00 0.00 62 1006.3
20260506004915 79 336 4.3 7.8 0.00 0.00 0.00 62 1006.3
20260506004413 79 2 0.9 4.3 0.00 0.00 0.00 62 1006.2
20260506003909 79 83 0.9 2.6 0.00 0.00 0.00 62 1006.1
20260506003405 79 313 1.7 6.1 0.00 0.00 0.00 61 1005.9
20260506002902 80 335 4.3 5.2 0.00 0.00 0.00 61 1006.0
20260506002358 80 9 2.6 6.1 0.00 0.00 0.00 61 1006.1
20260506001854 80 322 2.6 6.1 0.00 0.00 0.00 60 1006.0
20260506001351 81 25 3.5 8.7 0.00 0.00 0.00 59 1005.9
20260506000848 81 274 2.6 5.2 0.00 0.00 0.00 59 1006.0
20260506000346 82 311 1.7 6.1 0.00 0.00 0.00 58 1005.9
20260505235842 82 252 2.6 2.6 0.00 0.00 0.00 58 1005.9
20260505235340 82 252 2.6 5.2 0.00 0.00 0.00 57 1005.9
20260505234836 82 357 2.6 5.2 0.00 0.00 0.00 57 1005.6
20260505234335 83 24 6.1 7.8 0.00 0.00 0.00 57 1005.6
20260505233831 83 11 2.6 7.8 0.00 0.00 0.00 57 1005.5
20260505233329 84 7 2.6 7.8 0.00 0.00 0.00 57 1005.3
20260505232826 85 295 5.2 9.6 0.00 0.00 0.00 56 1005.4
20260505232324 87 13 2.6 6.1 0.00 0.00 0.00 52 1005.2
20260505231820 87 277 4.3 5.2 0.00 0.00 0.00 50 1005.3
20260505231318 87 273 2.6 4.3 0.00 0.00 0.00 49 1005.0
20260505230816 88 123 0.9 1.7 0.00 0.00 0.00 50 1005.0
20260505230313 88 273 2.6 5.2 0.00 0.00 0.00 49 1004.8
20260505225809 88 353 4.3 6.1 0.00 0.00 0.00 48 1004.8
20260505225307 88 264 1.7 5.2 0.00 0.00 0.00 47 1004.7
20260505224802 89 18 2.6 7.0 0.00 0.00 0.00 47 1004.6
20260505224300 92 301 3.5 6.1 0.00 0.00 0.00 46 1004.3
20260505223757 93 126 0.0 2.6 0.00 0.00 0.00 48 1004.4
20260505223254 94 126 0.0 0.9 0.00 0.00 0.00 45 1004.4
20260505222749 94 145 0.0 2.6 0.00 0.00 0.00 43 1004.5
20260505222246 95 168 0.9 1.7 0.00 0.00 0.00 43 1004.3
20260505221743 95 179 0.9 1.7 0.00 0.00 0.00 44 1004.3
20260505221240 95 207 0.9 4.3 0.00 0.00 0.00 44 1004.3
20260505220736 94 177 0.9 1.7 0.00 0.00 0.00 44 1004.1
20260505220234 93 188 0.9 2.6 0.00 0.00 0.00 45 1004.4
20260505215732 94 166 0.0 0.9 0.00 0.00 0.00 44 1004.1
20260505215229 93 149 0.9 2.6 0.00 0.00 0.00 46 1004.1
20260505214727 93 335 0.9 6.1 0.00 0.00 0.00 45 1004.2
20260505214224 93 158 0.9 1.7 0.00 0.00 0.00 44 1004.2
20260505213721 93 148 0.9 6.1 0.00 0.00 0.00 45 1004.4
20260505213219 93 144 0.9 2.6 0.00 0.00 0.00 45 1004.4
20260505212714 93 133 0.0 0.9 0.00 0.00 0.00 47 1004.3
20260505212212 92 92 0.9 0.9 0.00 0.00 0.00 47 1004.4
20260505211708 92 112 0.9 1.7 0.00 0.00 0.00 46 1004.5
20260505211206 92 134 0.9 5.2 0.00 0.00 0.00 45 1004.6
20260505210702 92 192 0.9 1.7 0.00 0.00 0.00 45 1004.7
20260505210159 93 154 0.9 1.7 0.00 0.00 0.00 47 1004.7
20260505205657 92 143 0.9 0.9 0.00 0.00 0.00 47 1004.9
20260505205155 93 111 0.9 4.3 0.00 0.00 0.00 48 1005.0
20260505204651 93 251 2.6 5.2 0.00 0.00 0.00 48 1005.3
20260505204149 92 128 0.9 0.9 0.00 0.00 0.00 52 1005.0
20260505203646 93 224 1.7 2.6 0.00 0.00 0.00 50 1004.9
20260505203142 92 158 0.9 1.7 0.00 0.00 0.00 51 1005.0
20260505202638 91 180 0.9 2.6 0.00 0.00 0.00 51 1005.2
20260505202134 91 184 1.7 2.6 0.00 0.00 0.00 52 1005.4
20260505201625 90 160 0.9 2.6 0.00 0.00 0.00 53 1005.5
20260505201118 90 189 1.7 2.6 0.00 0.00 0.00 54 1005.5
20260505200615 90 116 0.9 1.7 0.00 0.00 0.00 54 1005.4
20260505200112 90 147 1.7 1.7 0.00 0.00 0.00 55 1005.2
20260505195608 90 203 1.7 2.6 0.00 0.00 0.00 54 1005.6
20260505195106 91 225 0.9 1.7 0.00 0.00 0.00 53 1005.4
20260505194602 91 186 1.7 2.6 0.00 0.00 0.00 54 1005.5
20260505194052 90 122 0.9 5.2 0.00 0.00 0.00 54 1005.6
20260505193550 90 162 2.6 5.2 0.00 0.00 0.00 53 1005.5
20260505193046 89 215 1.7 4.3 0.00 0.00 0.00 55 1005.6
20260505192545 89 260 2.6 4.3 0.00 0.00 0.00 56 1005.7
20260505192042 89 239 2.6 4.3 0.00 0.00 0.00 55 1005.4
20260505191540 89 217 1.7 2.6 0.00 0.00 0.00 56 1005.5
20260505191038 89 165 0.9 2.6 0.00 0.00 0.00 57 1005.6
20260505190532 89 201 1.7 2.6 0.00 0.00 0.00 57 1005.5
20260505190029 89 172 0.9 4.3 0.00 0.00 0.00 57 1005.6
20260505185526 89 111 0.0 5.2 0.00 0.00 0.00 59 1005.7
20260505185022 88 129 1.7 5.2 0.00 0.00 0.00 58 1005.9
20260505184519 88 191 2.6 4.3 0.00 0.00 0.00 58 1005.6
20260505184016 89 132 2.6 2.6 0.00 0.00 0.00 59 1005.9
20260505183513 87 259 2.6 5.2 0.00 0.00 0.00 61 1006.0
20260505183010 87 192 1.7 5.2 0.00 0.00 0.00 62 1005.8
20260505182506 87 283 2.6 4.3 0.00 0.00 0.00 61 1005.9
20260505182003 87 220 2.6 6.1 0.00 0.00 0.00 60 1005.8
20260505181500 87 136 0.9 4.3 0.00 0.00 0.00 62 1005.9
20260505180956 86 155 1.7 2.6 0.00 0.00 0.00 62 1006.0
20260505180452 86 170 1.7 5.2 0.00 0.00 0.00 63 1006.1
20260505175950 86 115 2.6 4.3 0.00 0.00 0.00 62 1006.1
20260505175445 86 185 2.6 4.3 0.00 0.00 0.00 63 1006.1
20260505174942 85 181 1.7 2.6 0.00 0.00 0.00 63 1006.1
20260505174440 85 228 2.6 6.1 0.00 0.00 0.00 64 1006.3
20260505173936 86 113 2.6 4.3 0.00 0.00 0.00 63 1006.2
20260505173432 86 165 1.7 4.3 0.00 0.00 0.00 63 1006.1
20260505172929 85 216 1.7 4.3 0.00 0.00 0.00 64 1006.2
20260505172428 84 189 1.7 4.3 0.00 0.00 0.00 66 1006.2
20260505171926 83 152 1.7 5.2 0.00 0.00 0.00 67 1006.2
20260505171424 83 180 0.9 2.6 0.00 0.00 0.00 67 1006.3
20260505170920 83 219 1.7 4.3 0.00 0.00 0.00 67 1006.3
20260505170417 84 88 0.9 4.3 0.00 0.00 0.00 66 1006.3
20260505165912 84 158 1.7 4.3 0.00 0.00 0.00 65 1006.3
20260505165409 84 213 2.6 4.3 0.00 0.00 0.00 65 1006.5
20260505164904 84 126 0.9 2.6 0.00 0.00 0.00 66 1006.4
20260505164401 84 198 1.7 2.6 0.00 0.00 0.00 66 1006.4
20260505163859 83 201 1.7 2.6 0.00 0.00 0.00 67 1006.4
20260505163358 83 188 2.6 4.3 0.00 0.00 0.00 68 1006.2
20260505162856 83 196 1.7 6.1 0.00 0.00 0.00 68 1005.8
20260505162352 83 208 4.3 7.0 0.00 0.00 0.00 67 1005.8
20260505161849 84 170 1.7 2.6 0.00 0.00 0.00 67 1005.9
20260505161346 82 165 1.7 8.7 0.00 0.00 0.00 69 1005.8
20260505160843 82 246 2.6 6.1 0.00 0.00 0.00 70 1006.0
20260505160341 82 168 2.6 4.3 0.00 0.00 0.00 71 1006.0